DMSP 5D-2 F13 DEB, 40601

Orbit data source: Space-Track

DMSP 5D-2 F13 DEB, 40601 is space debris in SSO originally from a launch on Fri, 24 Mar 1995 UTC launched from the Air Force Western Test Range (AFWTR). Debris objects in space refer to the collection of defunct objects orbiting the Earth. Examples of debris include non-operational satellites, rocket bodies, and fragments generated from explosions, collisions, or faulty payload assembly.

Loading next visibility...
Identifier
40601, 1995-015EY
Orbit
SSO
Country
Flag of USUS
Related business
Manufacturer
Unknown
Mission
Spacecraft
Bus & Motor
Unknown
Mass
Unknown
Launch date (UTC)
1995-03-24 (31 years ago)
Launch vehicle
Unknown
Launch site
Air Force Western Test Range (AFWTR)
Object type
Payload
Rocket body
Debris
Shape & HBR
Unknown shape, 0.1 m
Radar Cross Section
Small (<0.1 m²)

Expand to show TLE details & history
Last TLE update: 2 days ago

TLE from 2 days ago
0 DMSP 5D-2 F13 DEB
1 40601U 95015EY  26234.59218447  .00004570  00000-0  12481-2 0  9992
2 40601  98.6466 285.7544 0007324  23.9183 336.2348 14.47770799589870
Epoch: 2026-08-22T14:12Z
TLE epoch observation values (Epoch: 2026-08-22T14:12:44.738Z)
Latitude
-0°
Longitude
101.66761°
Altitude
731.126 km
Speed
7.492 km/s
True Right ascension
19h 03m 01s
True Declination
0° 00' 00"
Sunlit
Object was in full shadow at epoch
Visualization orbit readout
Latitude
Unknown
Longitude
Unknown
Altitude
Unknown
Speed
Unknown
Apparent Right ascension
Unknown
Apparent Declination
Unknown
Sunlit
N/A
Visualization observer readout
Local Sidereal Time
19:32:51
Azimuth
Unknown
Elevation
Unknown
Doppler factor
Unknown
Orbital elements
Apogee altitude
735.263 km
Perigee altitude
724.851 km
Semi-major axis
7,108.194 km
Eccentricity
0.00073
Inclination
98.6466°
RAAN
285.7544°
Arg. of periapsis
23.9183°
True anomaly
336.20095°
Mean anomaly
336.2348°
Eccentric anomaly
336.21788°
Mean motion
3.62163 °/min
Orbital period
99.4 mins
BSTAR
0.0012481
Loading maneuver chart data...
Computing Atmospheric mass density...

Documentation

Showing up to 5 results
|